Time,TemperatureF,DewpointF,PressureIn,WindDirection,WindDirectionDegrees,WindSpeedMPH,WindSpeedGustMPH,Humidity,HourlyPrecipIn,Conditions,Clouds,dailyrainin,SolarRadiationWatts/m^2,SoftwareType,DateUTC
2013-02-09 00:01:00,46.9,42.6,30.18,NNE,17,0.0,4.0,85,0.00,,,0.00,0.0,meteohub,2013-02-09 06:01:00,
2013-02-09 00:06:00,46.9,42.6,30.18,NNE,17,0.0,4.0,85,0.00,,,0.00,0.0,meteohub,2013-02-09 06:06:00,
2013-02-09 00:11:00,47.1,43.2,30.19,NNE,15,0.0,3.0,86,0.00,,,0.00,0.0,meteohub,2013-02-09 06:11:00,
2013-02-09 00:16:00,47.1,43.2,30.19,North,8,3.0,3.0,86,0.00,,,0.00,0.0,meteohub,2013-02-09 06:16:00,
2013-02-09 00:21:00,47.3,43.3,30.19,WNW,300,0.0,3.0,86,0.00,,,0.00,0.0,meteohub,2013-02-09 06:21:00,
2013-02-09 00:26:00,47.3,43.3,30.18,WNW,301,0.0,3.0,86,0.00,,,0.00,0.0,meteohub,2013-02-09 06:26:00,
2013-02-09 00:32:00,47.5,43.5,30.18,WNW,300,0.0,3.0,86,0.00,,,0.00,0.0,meteohub,2013-02-09 06:32:00,
2013-02-09 00:37:00,47.5,43.5,30.18,WNW,300,0.0,1.0,86,0.00,,,0.00,0.0,meteohub,2013-02-09 06:37:00,
2013-02-09 00:42:00,47.5,43.5,30.19,WNW,301,0.0,2.0,86,0.00,,,0.00,0.0,meteohub,2013-02-09 06:42:00,
2013-02-09 00:47:00,47.3,43.3,30.18,NNE,21,0.0,2.0,86,0.00,,,0.00,0.0,meteohub,2013-02-09 06:47:00,
2013-02-09 00:52:00,47.3,43.3,30.19,WNW,302,0.0,3.0,86,0.00,,,0.00,0.0,meteohub,2013-02-09 06:52:00,
2013-02-09 00:57:00,47.1,43.2,30.19,WNW,302,0.0,3.0,86,0.00,,,0.00,0.0,meteohub,2013-02-09 06:57:00,
2013-02-09 01:02:00,47.1,43.2,30.19,NNW,344,0.0,3.0,86,0.00,,,0.00,0.0,meteohub,2013-02-09 07:02:00,
2013-02-09 01:07:00,46.9,43.0,30.19,NW,318,2.0,3.0,86,0.00,,,0.00,0.0,meteohub,2013-02-09 07:07:00,
2013-02-09 01:12:00,46.9,43.0,30.19,WNW,289,3.0,3.0,86,0.00,,,0.00,0.0,meteohub,2013-02-09 07:12:00,
2013-02-09 01:17:00,46.8,42.8,30.19,NNE,17,0.0,3.0,86,0.00,,,0.00,0.0,meteohub,2013-02-09 07:17:00,
2013-02-09 01:22:00,46.6,42.6,30.19,NNE,19,0.0,3.0,86,0.00,,,0.00,0.0,meteohub,2013-02-09 07:22:00,
2013-02-09 01:27:00,46.6,42.6,30.19,North,8,0.0,3.0,86,0.00,,,0.00,0.0,meteohub,2013-02-09 07:27:00,
2013-02-09 01:32:00,46.4,42.8,30.19,NNW,337,0.0,2.0,87,0.00,,,0.00,0.0,meteohub,2013-02-09 07:32:00,
2013-02-09 01:37:00,46.4,42.8,30.19,North,352,0.0,4.0,87,0.00,,,0.00,0.0,meteohub,2013-02-09 07:37:00,
2013-02-09 01:42:00,46.2,42.6,30.19,NW,318,0.0,4.0,87,0.00,,,0.00,0.0,meteohub,2013-02-09 07:42:00,
2013-02-09 01:47:00,46.2,42.6,30.19,NNE,19,0.0,4.0,87,0.00,,,0.00,0.0,meteohub,2013-02-09 07:47:00,
2013-02-09 01:52:00,46.0,42.4,30.19,NNE,19,0.0,4.0,87,0.00,,,0.00,0.0,meteohub,2013-02-09 07:52:00,
2013-02-09 01:57:00,46.0,42.4,30.18,NNE,12,0.0,3.0,87,0.00,,,0.00,0.0,meteohub,2013-02-09 07:57:00,
2013-02-09 02:02:00,45.9,42.3,30.18,North,11,0.0,3.0,87,0.00,,,0.00,0.0,meteohub,2013-02-09 08:02:00,
2013-02-09 02:07:00,45.7,42.1,30.17,NNE,12,0.0,3.0,87,0.00,,,0.00,0.0,meteohub,2013-02-09 08:07:00,
2013-02-09 02:12:00,45.5,41.9,30.17,North,350,0.0,3.0,87,0.00,,,0.00,0.0,meteohub,2013-02-09 08:12:00,
2013-02-09 02:17:00,45.3,41.7,30.17,North,350,0.0,4.0,87,0.00,,,0.00,0.0,meteohub,2013-02-09 08:17:00,
2013-02-09 02:22:00,45.3,41.9,30.17,North,8,0.0,4.0,88,0.00,,,0.00,0.0,meteohub,2013-02-09 08:22:00,
2013-02-09 02:27:00,45.1,41.7,30.17,North,359,0.0,4.0,88,0.00,,,0.00,0.0,meteohub,2013-02-09 08:27:00,
2013-02-09 02:32:00,45.0,41.5,30.17,North,359,0.0,3.0,88,0.00,,,0.00,0.0,meteohub,2013-02-09 08:32:00,
2013-02-09 02:37:00,45.0,41.5,30.17,North,359,0.0,3.0,88,0.00,,,0.00,0.0,meteohub,2013-02-09 08:37:00,
2013-02-09 02:42:00,44.8,41.4,30.17,NNE,13,0.0,2.0,88,0.00,,,0.00,0.0,meteohub,2013-02-09 08:42:00,
2013-02-09 02:47:00,44.6,41.2,30.17,NNE,23,0.0,3.0,88,0.00,,,0.00,0.0,meteohub,2013-02-09 08:47:00,
2013-02-09 02:52:00,44.4,41.4,30.17,NNE,23,0.0,3.0,89,0.00,,,0.00,0.0,meteohub,2013-02-09 08:52:00,
2013-02-09 02:57:00,44.4,41.4,30.18,NNE,23,0.0,3.0,89,0.00,,,0.00,0.0,meteohub,2013-02-09 08:57:00,
2013-02-09 03:02:00,44.2,41.2,30.18,NNE,23,0.0,2.0,89,0.00,,,0.00,0.0,meteohub,2013-02-09 09:02:00,
2013-02-09 03:07:00,44.2,41.2,30.17,NNE,23,0.0,1.0,89,0.00,,,0.00,0.0,meteohub,2013-02-09 09:07:00,
2013-02-09 03:12:00,44.1,41.0,30.17,NNE,23,0.0,0.0,89,0.00,,,0.00,0.0,meteohub,2013-02-09 09:12:00,
2013-02-09 03:17:00,43.9,40.8,30.18,NNE,23,0.0,0.0,89,0.00,,,0.00,0.0,meteohub,2013-02-09 09:17:00,
2013-02-09 03:22:00,43.7,40.6,30.17,NNE,23,0.0,0.0,89,0.00,,,0.00,0.0,meteohub,2013-02-09 09:22:00,
2013-02-09 03:27:00,43.5,40.5,30.17,NNE,23,0.0,0.0,89,0.00,,,0.00,0.0,meteohub,2013-02-09 09:27:00,
2013-02-09 03:32:00,43.3,40.3,30.17,NNE,23,0.0,0.0,89,0.00,,,0.00,0.0,meteohub,2013-02-09 09:32:00,
2013-02-09 03:37:00,43.3,40.3,30.17,NNE,23,0.0,0.0,89,0.00,,,0.00,0.0,meteohub,2013-02-09 09:37:00,
2013-02-09 03:42:00,43.2,40.1,30.17,NNE,23,0.0,0.0,89,0.00,,,0.00,0.0,meteohub,2013-02-09 09:42:00,
2013-02-09 03:47:00,43.0,39.9,30.17,NNE,23,0.0,0.0,89,0.00,,,0.00,0.0,meteohub,2013-02-09 09:47:00,
2013-02-09 03:52:00,42.8,40.1,30.17,NNE,23,0.0,2.0,90,0.00,,,0.00,0.0,meteohub,2013-02-09 09:52:00,
2013-02-09 03:57:00,42.6,39.9,30.17,NNE,23,0.0,2.0,90,0.00,,,0.00,0.0,meteohub,2013-02-09 09:57:00,
2013-02-09 04:03:00,42.6,39.9,30.17,NNE,23,0.0,2.0,90,0.00,,,0.00,0.0,meteohub,2013-02-09 10:03:00,
2013-02-09 04:08:00,42.4,39.7,30.17,NNE,23,0.0,0.0,90,0.00,,,0.00,0.0,meteohub,2013-02-09 10:08:00,
2013-02-09 04:13:00,42.4,39.7,30.17,NNE,23,0.0,1.0,90,0.00,,,0.00,0.0,meteohub,2013-02-09 10:13:00,
2013-02-09 04:18:00,42.4,39.7,30.17,NNE,23,0.0,1.0,90,0.00,,,0.00,0.0,meteohub,2013-02-09 10:18:00,
2013-02-09 04:23:00,42.3,39.7,30.17,NNE,23,0.0,1.0,91,0.00,,,0.00,0.0,meteohub,2013-02-09 10:23:00,
2013-02-09 04:28:00,42.3,39.7,30.18,NNE,23,0.0,1.0,91,0.00,,,0.00,0.0,meteohub,2013-02-09 10:28:00,
2013-02-09 04:33:00,42.1,39.6,30.18,NNE,23,0.0,0.0,91,0.00,,,0.00,0.0,meteohub,2013-02-09 10:33:00,
2013-02-09 04:38:00,42.1,39.6,30.18,NNE,23,0.0,0.0,91,0.00,,,0.00,0.0,meteohub,2013-02-09 10:38:00,
2013-02-09 04:43:00,42.1,39.6,30.18,NNE,23,0.0,0.0,91,0.00,,,0.00,0.0,meteohub,2013-02-09 10:43:00,
2013-02-09 04:48:00,41.9,39.4,30.18,NNE,23,0.0,0.0,91,0.00,,,0.00,0.0,meteohub,2013-02-09 10:48:00,
2013-02-09 04:53:00,41.7,39.2,30.18,NNE,23,0.0,0.0,91,0.00,,,0.00,0.0,meteohub,2013-02-09 10:53:00,
2013-02-09 04:58:00,41.7,39.2,30.18,NNE,23,0.0,0.0,91,0.00,,,0.00,0.0,meteohub,2013-02-09 10:58:00,
2013-02-09 05:03:00,41.7,39.2,30.18,NNE,23,0.0,0.0,91,0.00,,,0.00,0.0,meteohub,2013-02-09 11:03:00,
2013-02-09 05:08:00,41.5,39.2,30.17,NNE,23,0.0,0.0,91,0.00,,,0.00,0.0,meteohub,2013-02-09 11:08:00,
2013-02-09 05:13:00,41.5,39.4,30.17,NNE,23,0.0,2.0,92,0.00,,,0.00,0.0,meteohub,2013-02-09 11:13:00,
2013-02-09 05:18:00,41.5,39.4,30.17,NNE,23,0.0,2.0,92,0.00,,,0.00,0.0,meteohub,2013-02-09 11:18:00,
2013-02-09 05:23:00,41.5,39.4,30.17,NNE,23,0.0,2.0,92,0.00,,,0.00,0.0,meteohub,2013-02-09 11:23:00,
2013-02-09 05:28:00,41.7,39.6,30.18,NNE,23,0.0,1.0,92,0.00,,,0.00,0.0,meteohub,2013-02-09 11:28:00,
2013-02-09 05:33:00,41.7,39.9,30.17,North,2,0.0,2.0,93,0.00,,,0.00,0.0,meteohub,2013-02-09 11:33:00,
2013-02-09 05:38:00,42.1,40.3,30.17,NNW,348,0.0,3.0,93,0.00,,,0.00,0.0,meteohub,2013-02-09 11:38:00,
2013-02-09 05:43:00,42.3,40.5,30.17,North,3,0.0,3.0,93,0.00,,,0.00,0.0,meteohub,2013-02-09 11:43:00,
2013-02-09 05:48:00,42.4,40.6,30.18,North,0,0.0,3.0,93,0.00,,,0.00,0.0,meteohub,2013-02-09 11:48:00,
2013-02-09 05:53:00,42.4,40.6,30.18,North,357,3.0,3.0,93,0.00,,,0.00,0.0,meteohub,2013-02-09 11:53:00,
2013-02-09 05:58:00,42.6,40.8,30.18,North,2,0.0,5.0,93,0.00,,,0.00,0.0,meteohub,2013-02-09 11:58:00,
2013-02-09 06:03:00,42.8,41.2,30.19,North,9,0.0,5.0,94,0.00,,,0.00,0.0,meteohub,2013-02-09 12:03:00,
2013-02-09 06:08:00,43.0,41.4,30.18,NNE,15,0.0,5.0,94,0.00,,,0.00,0.0,meteohub,2013-02-09 12:08:00,
2013-02-09 06:13:00,43.0,41.4,30.18,NE,35,0.0,5.0,94,0.00,,,0.00,0.0,meteohub,2013-02-09 12:13:00,
2013-02-09 06:18:00,43.0,41.2,30.18,NE,43,0.0,5.0,93,0.00,,,0.00,0.0,meteohub,2013-02-09 12:18:00,
2013-02-09 06:23:00,43.2,41.4,30.17,NE,42,1.0,5.0,93,0.00,,,0.00,0.0,meteohub,2013-02-09 12:23:00,
2013-02-09 06:28:00,43.2,41.4,30.17,North,350,0.0,4.0,93,0.00,,,0.00,0.0,meteohub,2013-02-09 12:28:00,
2013-02-09 06:33:00,43.2,41.4,30.17,NNE,18,0.0,4.0,93,0.00,,,0.00,0.0,meteohub,2013-02-09 12:33:00,
2013-02-09 06:38:00,43.2,41.4,30.18,North,0,0.0,4.0,93,0.00,,,0.00,0.0,meteohub,2013-02-09 12:38:00,
2013-02-09 06:43:00,43.2,41.4,30.19,NE,34,0.0,4.0,93,0.00,,,0.00,0.0,meteohub,2013-02-09 12:43:00,
2013-02-09 06:48:00,43.2,41.4,30.19,NNE,33,0.0,3.0,93,0.00,,,0.00,0.0,meteohub,2013-02-09 12:48:00,
2013-02-09 06:53:00,43.3,41.5,30.19,NNE,33,0.0,3.0,93,0.00,,,0.00,0.0,meteohub,2013-02-09 12:53:00,
2013-02-09 06:58:00,43.3,41.5,30.19,NE,38,0.0,3.0,93,0.00,,,0.00,0.0,meteohub,2013-02-09 12:58:00,
2013-02-09 07:04:00,43.3,41.5,30.19,NNE,31,0.0,4.0,93,0.00,,,0.00,5.0,meteohub,2013-02-09 13:04:00,
2013-02-09 07:09:00,43.3,41.5,30.19,North,0,0.0,4.0,93,0.00,,,0.00,5.0,meteohub,2013-02-09 13:09:00,
2013-02-09 07:14:00,43.5,41.7,30.20,NNE,13,3.0,4.0,93,0.00,,,0.00,11.0,meteohub,2013-02-09 13:14:00,
2013-02-09 07:19:00,43.7,41.7,30.20,NNE,26,1.0,4.0,93,0.00,,,0.00,12.0,meteohub,2013-02-09 13:19:00,
2013-02-09 07:24:00,43.9,41.9,30.20,North,1,0.0,4.0,93,0.00,,,0.00,16.0,meteohub,2013-02-09 13:24:00,
2013-02-09 07:29:00,43.9,41.9,30.20,North,11,2.0,5.0,93,0.00,,,0.00,21.0,meteohub,2013-02-09 13:29:00,
2013-02-09 07:34:00,44.1,42.1,30.20,NNE,30,0.0,5.0,93,0.00,,,0.00,30.0,meteohub,2013-02-09 13:34:00,
2013-02-09 07:39:00,44.2,42.3,30.21,North,352,3.0,6.0,93,0.00,,,0.00,46.0,meteohub,2013-02-09 13:39:00,
2013-02-09 07:44:00,44.2,42.3,30.20,NNE,15,0.0,6.0,93,0.00,,,0.00,65.0,meteohub,2013-02-09 13:44:00,
2013-02-09 07:49:00,44.4,42.4,30.20,NNE,21,0.0,6.0,93,0.00,,,0.00,58.0,meteohub,2013-02-09 13:49:00,
2013-02-09 07:54:00,44.8,42.8,30.21,NNE,20,0.0,6.0,93,0.00,,,0.00,63.0,meteohub,2013-02-09 13:54:00,
2013-02-09 07:59:00,44.8,42.8,30.20,NNE,12,0.0,6.0,93,0.00,,,0.00,70.0,meteohub,2013-02-09 13:59:00,
2013-02-09 08:04:00,45.0,42.8,30.21,NNE,14,0.0,5.0,92,0.00,,,0.00,67.0,meteohub,2013-02-09 14:04:00,
2013-02-09 08:09:00,45.1,43.0,30.20,NNW,346,2.0,5.0,92,0.00,,,0.00,90.0,meteohub,2013-02-09 14:09:00,
2013-02-09 08:14:00,45.3,43.2,30.21,NNE,14,0.0,4.0,92,0.00,,,0.00,81.0,meteohub,2013-02-09 14:14:00,
2013-02-09 08:19:00,45.5,43.3,30.21,NNE,14,2.0,6.0,92,0.00,,,0.00,97.0,meteohub,2013-02-09 14:19:00,
2013-02-09 08:24:00,45.9,43.7,30.21,NE,54,0.0,6.0,92,0.00,,,0.00,127.0,meteohub,2013-02-09 14:24:00,
2013-02-09 08:29:00,46.2,43.7,30.21,North,352,5.0,5.0,91,0.00,,,0.00,151.0,meteohub,2013-02-09 14:29:00,
2013-02-09 08:34:00,46.6,43.9,30.21,North,7,2.0,6.0,90,0.00,,,0.00,98.0,meteohub,2013-02-09 14:34:00,
2013-02-09 08:39:00,46.8,44.1,30.21,NNE,27,3.0,6.0,90,0.00,,,0.00,86.0,meteohub,2013-02-09 14:39:00,
2013-02-09 08:44:00,46.9,43.9,30.21,NE,42,0.0,6.0,89,0.00,,,0.00,98.0,meteohub,2013-02-09 14:44:00,
2013-02-09 08:49:00,47.1,44.1,30.21,North,10,0.0,6.0,89,0.00,,,0.00,90.0,meteohub,2013-02-09 14:49:00,
2013-02-09 08:54:00,47.3,44.2,30.21,NNE,17,1.0,6.0,89,0.00,,,0.00,91.0,meteohub,2013-02-09 14:54:00,
2013-02-09 08:59:00,47.5,44.1,30.21,North,9,0.0,6.0,88,0.00,,,0.00,125.0,meteohub,2013-02-09 14:59:00,
2013-02-09 09:04:00,47.7,44.2,30.21,NE,40,5.0,6.0,88,0.00,,,0.00,118.0,meteohub,2013-02-09 15:04:00,
2013-02-09 09:09:00,47.8,44.4,30.21,NNE,27,1.0,7.0,88,0.00,,,0.00,116.0,meteohub,2013-02-09 15:09:00,
2013-02-09 09:14:00,48.0,44.6,30.22,NE,54,0.0,7.0,88,0.00,,,0.00,132.0,meteohub,2013-02-09 15:14:00,
2013-02-09 09:19:00,48.4,44.8,30.21,NNE,27,2.0,7.0,87,0.00,,,0.00,148.0,meteohub,2013-02-09 15:19:00,
2013-02-09 09:24:00,48.6,44.8,30.21,NNE,32,0.0,6.0,87,0.00,,,0.00,188.0,meteohub,2013-02-09 15:24:00,
2013-02-09 09:29:00,49.3,45.5,30.21,North,0,4.0,6.0,87,0.00,,,0.00,251.0,meteohub,2013-02-09 15:29:00,
2013-02-09 09:34:00,49.6,45.7,30.21,NNE,19,2.0,6.0,86,0.00,,,0.00,392.0,meteohub,2013-02-09 15:34:00,
2013-02-09 09:39:00,49.8,45.5,30.21,NNE,15,2.0,6.0,85,0.00,,,0.00,378.0,meteohub,2013-02-09 15:39:00,
2013-02-09 09:44:00,50.4,46.0,30.21,ESE,109,0.0,9.0,85,0.00,,,0.00,288.0,meteohub,2013-02-09 15:44:00,
2013-02-09 09:49:00,50.5,45.9,30.21,NNE,21,2.0,9.0,84,0.00,,,0.00,338.0,meteohub,2013-02-09 15:49:00,
2013-02-09 09:55:00,51.1,46.0,30.21,North,11,1.0,9.0,83,0.00,,,0.00,253.0,meteohub,2013-02-09 15:55:00,
2013-02-09 10:00:00,51.1,46.0,30.21,NNE,28,1.0,6.0,83,0.00,,,0.00,241.0,meteohub,2013-02-09 16:00:00,
2013-02-09 10:05:00,51.4,46.4,30.21,NE,36,3.0,6.0,83,0.00,,,0.00,316.0,meteohub,2013-02-09 16:05:00,
2013-02-09 10:10:00,51.4,46.4,30.21,NNE,30,0.0,6.0,83,0.00,,,0.00,258.0,meteohub,2013-02-09 16:10:00,
2013-02-09 10:15:00,52.2,47.1,30.21,NNE,30,1.0,5.0,83,0.00,,,0.00,265.0,meteohub,2013-02-09 16:15:00,
2013-02-09 10:20:00,52.3,47.3,30.21,NE,38,0.0,5.0,83,0.00,,,0.00,243.0,meteohub,2013-02-09 16:20:00,
2013-02-09 10:25:00,52.5,47.1,30.21,NE,43,0.0,4.0,82,0.00,,,0.00,239.0,meteohub,2013-02-09 16:25:00,
2013-02-09 10:30:00,53.1,47.7,30.21,NE,36,0.0,5.0,82,0.00,,,0.00,297.0,meteohub,2013-02-09 16:30:00,
2013-02-09 10:35:00,53.2,47.5,30.21,NNE,24,0.0,5.0,81,0.00,,,0.00,229.0,meteohub,2013-02-09 16:35:00,
2013-02-09 10:40:00,53.8,48.0,30.21,NNE,23,0.0,5.0,81,0.00,,,0.00,248.0,meteohub,2013-02-09 16:40:00,
2013-02-09 10:45:00,54.0,48.2,30.20,NNE,30,0.0,5.0,81,0.00,,,0.00,264.0,meteohub,2013-02-09 16:45:00,
2013-02-09 10:50:00,53.8,48.0,30.20,NE,41,3.0,6.0,81,0.00,,,0.00,244.0,meteohub,2013-02-09 16:50:00,
2013-02-09 10:55:00,54.0,48.2,30.20,ENE,67,0.0,7.0,81,0.00,,,0.00,262.0,meteohub,2013-02-09 16:55:00,
2013-02-09 11:00:00,54.1,48.4,30.19,ENE,65,1.0,7.0,81,0.00,,,0.00,243.0,meteohub,2013-02-09 17:00:00,
2013-02-09 11:05:00,54.3,48.2,30.19,NNE,29,4.0,10.0,80,0.00,,,0.00,311.0,meteohub,2013-02-09 17:05:00,
2013-02-09 11:10:00,54.5,48.4,30.19,NNE,32,4.0,10.0,80,0.00,,,0.00,315.0,meteohub,2013-02-09 17:10:00,
2013-02-09 11:15:00,55.2,49.1,30.18,East,89,4.0,10.0,80,0.00,,,0.00,380.0,meteohub,2013-02-09 17:15:00,
2013-02-09 11:20:00,55.8,49.3,30.18,ENE,63,0.0,9.0,79,0.00,,,0.00,411.0,meteohub,2013-02-09 17:20:00,
2013-02-09 11:25:00,55.9,49.1,30.18,NE,36,1.0,9.0,78,0.00,,,0.00,302.0,meteohub,2013-02-09 17:25:00,
2013-02-09 11:30:00,56.1,49.3,30.17,NNW,333,2.0,7.0,78,0.00,,,0.00,313.0,meteohub,2013-02-09 17:30:00,
2013-02-09 11:35:00,55.9,48.9,30.17,North,358,3.0,7.0,77,0.00,,,0.00,329.0,meteohub,2013-02-09 17:35:00,
2013-02-09 11:40:00,56.7,49.5,30.17,NNE,21,3.0,7.0,77,0.00,,,0.00,376.0,meteohub,2013-02-09 17:40:00,
2013-02-09 11:45:00,56.8,49.6,30.17,ENE,57,0.0,7.0,77,0.00,,,0.00,313.0,meteohub,2013-02-09 17:45:00,
2013-02-09 11:50:00,57.2,50.0,30.16,NE,54,0.0,9.0,77,0.00,,,0.00,253.0,meteohub,2013-02-09 17:50:00,
2013-02-09 11:55:00,57.0,50.2,30.17,NNE,29,0.0,9.0,78,0.00,,,0.00,262.0,meteohub,2013-02-09 17:55:00,
2013-02-09 12:00:00,57.4,50.2,30.16,NNE,26,3.0,6.0,77,0.00,,,0.00,262.0,meteohub,2013-02-09 18:00:00,
2013-02-09 12:05:00,57.6,50.4,30.16,NNE,28,2.0,6.0,77,0.00,,,0.00,279.0,meteohub,2013-02-09 18:05:00,
2013-02-09 12:10:00,57.9,50.4,30.16,NE,51,0.0,6.0,76,0.00,,,0.00,274.0,meteohub,2013-02-09 18:10:00,
2013-02-09 12:15:00,58.5,51.3,30.15,NE,35,4.0,6.0,77,0.00,,,0.00,251.0,meteohub,2013-02-09 18:15:00,
2013-02-09 12:20:00,58.5,51.3,30.15,NE,34,4.0,6.0,77,0.00,,,0.00,229.0,meteohub,2013-02-09 18:20:00,
2013-02-09 12:25:00,58.6,51.4,30.14,NNE,23,3.0,6.0,77,0.00,,,0.00,229.0,meteohub,2013-02-09 18:25:00,
2013-02-09 12:30:00,58.5,51.3,30.14,NE,36,3.0,7.0,77,0.00,,,0.00,236.0,meteohub,2013-02-09 18:30:00,
2013-02-09 12:35:00,58.5,51.3,30.14,NE,36,0.0,7.0,77,0.00,,,0.00,257.0,meteohub,2013-02-09 18:35:00,
2013-02-09 12:40:00,59.0,51.8,30.14,East,94,0.0,7.0,77,0.00,,,0.00,292.0,meteohub,2013-02-09 18:40:00,
2013-02-09 12:45:00,59.0,51.8,30.13,ENE,72,3.0,6.0,77,0.00,,,0.00,287.0,meteohub,2013-02-09 18:45:00,
2013-02-09 12:50:00,59.2,51.6,30.13,NE,41,0.0,10.0,76,0.00,,,0.00,262.0,meteohub,2013-02-09 18:50:00,
2013-02-09 12:55:00,59.2,51.6,30.12,North,7,2.0,10.0,76,0.00,,,0.00,241.0,meteohub,2013-02-09 18:55:00,
2013-02-09 13:00:00,59.4,52.2,30.12,NNE,19,0.0,8.0,77,0.00,,,0.00,218.0,meteohub,2013-02-09 19:00:00,
2013-02-09 13:05:00,59.7,52.2,30.12,NNE,21,0.0,8.0,76,0.00,,,0.00,192.0,meteohub,2013-02-09 19:05:00,
2013-02-09 13:10:00,60.1,52.5,30.12,NE,41,1.0,5.0,76,0.00,,,0.00,236.0,meteohub,2013-02-09 19:10:00,
2013-02-09 13:15:00,60.1,52.5,30.11,ENE,59,1.0,7.0,76,0.00,,,0.00,244.0,meteohub,2013-02-09 19:15:00,
2013-02-09 13:20:00,60.3,52.7,30.11,NNE,32,3.0,7.0,76,0.00,,,0.00,199.0,meteohub,2013-02-09 19:20:00,
2013-02-09 13:25:00,60.1,52.5,30.11,NE,34,0.0,8.0,76,0.00,,,0.00,278.0,meteohub,2013-02-09 19:25:00,
2013-02-09 13:30:00,60.6,53.1,30.10,SE,137,0.0,8.0,76,0.00,,,0.00,315.0,meteohub,2013-02-09 19:30:00,
2013-02-09 13:35:00,61.2,53.6,30.10,NE,48,0.0,8.0,76,0.00,,,0.00,378.0,meteohub,2013-02-09 19:35:00,
2013-02-09 13:40:00,61.3,53.4,30.10,ESE,107,1.0,10.0,75,0.00,,,0.00,339.0,meteohub,2013-02-09 19:40:00,
2013-02-09 13:45:00,61.5,53.2,30.10,East,100,1.0,10.0,74,0.00,,,0.00,287.0,meteohub,2013-02-09 19:45:00,
2013-02-09 13:50:00,61.5,53.6,30.09,NE,54,4.0,10.0,75,0.00,,,0.00,193.0,meteohub,2013-02-09 19:50:00,
2013-02-09 13:55:00,61.2,53.6,30.09,NE,37,2.0,10.0,76,0.00,,,0.00,199.0,meteohub,2013-02-09 19:55:00,
2013-02-09 14:00:00,61.2,53.6,30.09,NNE,30,0.0,10.0,76,0.00,,,0.00,197.0,meteohub,2013-02-09 20:00:00,
2013-02-09 14:05:00,61.3,53.8,30.09,NE,50,3.0,10.0,76,0.00,,,0.00,174.0,meteohub,2013-02-09 20:05:00,
2013-02-09 14:11:00,61.2,53.6,30.09,East,94,3.0,7.0,76,0.00,,,0.00,211.0,meteohub,2013-02-09 20:11:00,
2013-02-09 14:16:00,61.3,53.8,30.09,ENE,75,2.0,7.0,76,0.00,,,0.00,167.0,meteohub,2013-02-09 20:16:00,
2013-02-09 14:21:00,61.5,54.0,30.09,NE,46,0.0,7.0,76,0.00,,,0.00,197.0,meteohub,2013-02-09 20:21:00,
2013-02-09 14:26:00,61.9,54.3,30.08,NNE,32,2.0,5.0,76,0.00,,,0.00,121.0,meteohub,2013-02-09 20:26:00,
2013-02-09 14:31:00,61.5,54.0,30.07,NE,36,3.0,7.0,76,0.00,,,0.00,162.0,meteohub,2013-02-09 20:31:00,
2013-02-09 14:36:00,61.9,54.7,30.07,NNE,30,3.0,7.0,77,0.00,,,0.00,299.0,meteohub,2013-02-09 20:36:00,
2013-02-09 14:41:00,62.4,54.7,30.07,East,81,2.0,7.0,76,0.00,,,0.00,327.0,meteohub,2013-02-09 20:41:00,
2013-02-09 14:46:00,63.1,55.0,30.06,SE,130,4.0,7.0,75,0.00,,,0.00,202.0,meteohub,2013-02-09 20:46:00,
2013-02-09 14:51:00,63.0,54.5,30.06,NNE,22,2.0,7.0,74,0.00,,,0.00,190.0,meteohub,2013-02-09 20:51:00,
2013-02-09 14:56:00,62.8,54.7,30.06,East,101,0.0,7.0,75,0.00,,,0.00,206.0,meteohub,2013-02-09 20:56:00,
2013-02-09 15:01:00,63.0,54.9,30.05,NNE,29,2.0,7.0,75,0.00,,,0.00,250.0,meteohub,2013-02-09 21:01:00,
2013-02-09 15:06:00,63.0,54.5,30.05,ENE,65,0.0,8.0,74,0.00,,,0.00,142.0,meteohub,2013-02-09 21:06:00,
2013-02-09 15:11:00,62.8,54.7,30.05,NE,35,4.0,8.0,75,0.00,,,0.00,206.0,meteohub,2013-02-09 21:11:00,
2013-02-09 15:16:00,63.0,54.9,30.05,ESE,106,0.0,9.0,75,0.00,,,0.00,197.0,meteohub,2013-02-09 21:16:00,
2013-02-09 15:21:00,63.0,54.9,30.05,NE,41,5.0,9.0,75,0.00,,,0.00,171.0,meteohub,2013-02-09 21:21:00,
2013-02-09 15:26:00,63.0,54.9,30.05,NNE,22,3.0,12.0,75,0.00,,,0.00,192.0,meteohub,2013-02-09 21:26:00,
2013-02-09 15:31:00,63.0,55.2,30.05,NNE,25,6.0,12.0,76,0.00,,,0.00,163.0,meteohub,2013-02-09 21:31:00,
2013-02-09 15:36:00,63.0,55.2,30.05,NNE,23,3.0,12.0,76,0.00,,,0.00,153.0,meteohub,2013-02-09 21:36:00,
2013-02-09 15:41:00,63.0,55.2,30.05,NNE,28,3.0,9.0,76,0.00,,,0.00,199.0,meteohub,2013-02-09 21:41:00,
2013-02-09 15:46:00,63.3,55.6,30.05,SE,125,2.0,7.0,76,0.00,,,0.00,193.0,meteohub,2013-02-09 21:46:00,
2013-02-09 15:51:00,63.7,55.6,30.05,ENE,72,0.0,7.0,75,0.00,,,0.00,88.0,meteohub,2013-02-09 21:51:00,
2013-02-09 15:56:00,63.3,55.2,30.04,East,95,0.0,7.0,75,0.00,,,0.00,83.0,meteohub,2013-02-09 21:56:00,
2013-02-09 16:01:00,63.1,55.4,30.05,ENE,59,0.0,6.0,76,0.00,,,0.00,86.0,meteohub,2013-02-09 22:01:00,
2013-02-09 16:06:00,63.3,55.6,30.04,ENE,63,0.0,5.0,76,0.00,,,0.00,91.0,meteohub,2013-02-09 22:06:00,
2013-02-09 16:11:00,63.3,55.6,30.04,NNE,25,0.0,5.0,76,0.00,,,0.00,77.0,meteohub,2013-02-09 22:11:00,
2013-02-09 16:16:00,63.3,55.6,30.04,NE,54,0.0,3.0,76,0.00,,,0.00,53.0,meteohub,2013-02-09 22:16:00,
2013-02-09 16:21:00,63.3,55.6,30.05,East,87,0.0,4.0,76,0.00,,,0.00,44.0,meteohub,2013-02-09 22:21:00,
2013-02-09 16:26:00,63.3,55.6,30.04,East,87,0.0,4.0,76,0.00,,,0.00,54.0,meteohub,2013-02-09 22:26:00,
2013-02-09 16:31:00,63.3,55.9,30.04,East,87,0.0,4.0,77,0.00,,,0.00,37.0,meteohub,2013-02-09 22:31:00,
2013-02-09 16:36:00,63.3,55.9,30.04,East,87,0.0,2.0,77,0.00,,,0.00,26.0,meteohub,2013-02-09 22:36:00,
2013-02-09 16:41:00,63.3,55.9,30.04,East,87,0.0,1.0,77,0.00,,,0.00,23.0,meteohub,2013-02-09 22:41:00,
2013-02-09 16:46:00,63.3,55.9,30.04,East,87,0.0,0.0,77,0.00,,,0.00,21.0,meteohub,2013-02-09 22:46:00,
2013-02-09 16:51:00,63.3,55.9,30.04,East,87,0.0,0.0,77,0.00,,,0.00,23.0,meteohub,2013-02-09 22:51:00,
2013-02-09 16:56:00,63.3,55.9,30.04,NE,34,2.0,3.0,77,0.00,,,0.00,18.0,meteohub,2013-02-09 22:56:00,
2013-02-09 17:01:00,63.5,56.1,30.04,NNE,31,0.0,3.0,77,0.00,,,0.00,16.0,meteohub,2013-02-09 23:01:00,
2013-02-09 17:07:00,63.5,56.1,30.04,NE,34,0.0,4.0,77,0.00,,,0.00,14.0,meteohub,2013-02-09 23:07:00,
2013-02-09 17:11:00,63.5,56.1,30.04,East,92,0.0,4.0,77,0.00,,,0.00,16.0,meteohub,2013-02-09 23:11:00,
2013-02-09 17:17:00,63.5,56.1,30.03,NNE,33,0.0,3.0,77,0.00,,,0.00,19.0,meteohub,2013-02-09 23:17:00,
2013-02-09 17:22:00,63.5,56.5,30.03,NE,34,0.0,4.0,78,0.00,,,0.00,23.0,meteohub,2013-02-09 23:22:00,
2013-02-09 17:27:00,63.5,56.5,30.03,NE,37,0.0,5.0,78,0.00,,,0.00,21.0,meteohub,2013-02-09 23:27:00,
2013-02-09 17:32:00,63.5,56.5,30.03,NNE,27,0.0,5.0,78,0.00,,,0.00,12.0,meteohub,2013-02-09 23:32:00,
2013-02-09 17:37:00,63.5,56.5,30.03,NE,34,1.0,5.0,78,0.00,,,0.00,9.0,meteohub,2013-02-09 23:37:00,
2013-02-09 17:42:00,63.5,56.5,30.03,NNE,29,0.0,5.0,78,0.00,,,0.00,7.0,meteohub,2013-02-09 23:42:00,
2013-02-09 17:47:00,63.3,56.3,30.03,NNE,23,3.0,5.0,78,0.00,,,0.00,0.0,meteohub,2013-02-09 23:47:00,
2013-02-09 17:52:00,63.5,56.5,30.03,NE,37,0.0,7.0,78,0.00,,,0.00,0.0,meteohub,2013-02-09 23:52:00,
2013-02-09 17:57:00,63.3,56.3,30.03,NNE,28,1.0,7.0,78,0.00,,,0.00,0.0,meteohub,2013-02-09 23:57:00,
2013-02-09 18:02:00,63.1,56.1,30.02,NNE,28,0.0,7.0,78,0.00,,,0.00,0.0,meteohub,2013-02-10 00:02:00,
2013-02-09 18:07:00,63.0,55.9,30.02,NNE,28,0.0,4.0,78,0.00,,,0.00,0.0,meteohub,2013-02-10 00:07:00,
2013-02-09 18:12:00,62.8,55.8,30.02,NNE,30,0.0,4.0,78,0.00,,,0.00,0.0,meteohub,2013-02-10 00:12:00,
2013-02-09 18:17:00,62.6,55.9,30.02,NNE,21,3.0,5.0,79,0.00,,,0.00,0.0,meteohub,2013-02-10 00:17:00,
2013-02-09 18:22:00,62.4,55.8,30.02,NE,34,0.0,5.0,79,0.00,,,0.00,0.0,meteohub,2013-02-10 00:22:00,
2013-02-09 18:27:00,62.4,55.8,30.02,NNE,14,0.0,5.0,79,0.00,,,0.00,0.0,meteohub,2013-02-10 00:27:00,
2013-02-09 18:32:00,62.4,55.8,30.02,NE,40,3.0,5.0,79,0.00,,,0.00,0.0,meteohub,2013-02-10 00:32:00,
2013-02-09 18:37:00,62.2,55.9,30.02,NNE,13,0.0,5.0,80,0.00,,,0.00,0.0,meteohub,2013-02-10 00:37:00,
2013-02-09 18:42:00,62.2,55.9,30.02,NNE,30,0.0,5.0,80,0.00,,,0.00,0.0,meteohub,2013-02-10 00:42:00,
2013-02-09 18:47:00,62.2,55.9,30.02,NE,37,2.0,4.0,80,0.00,,,0.00,0.0,meteohub,2013-02-10 00:47:00,
2013-02-09 18:52:00,62.2,56.3,30.02,NE,36,0.0,4.0,81,0.00,,,0.00,0.0,meteohub,2013-02-10 00:52:00,
2013-02-09 18:57:00,62.2,56.3,30.02,NNE,21,0.0,4.0,81,0.00,,,0.00,0.0,meteohub,2013-02-10 00:57:00,
2013-02-09 19:02:00,62.1,56.1,30.02,NE,41,0.0,7.0,81,0.00,,,0.00,0.0,meteohub,2013-02-10 01:02:00,
2013-02-09 19:07:00,61.9,56.3,30.02,NE,49,3.0,7.0,82,0.00,,,0.00,0.0,meteohub,2013-02-10 01:07:00,
2013-02-09 19:12:00,61.9,56.3,30.02,NNE,26,4.0,9.0,82,0.00,,,0.00,0.0,meteohub,2013-02-10 01:12:00,
2013-02-09 19:17:00,61.9,56.7,30.02,NNE,29,0.0,9.0,83,0.00,,,0.00,0.0,meteohub,2013-02-10 01:17:00,
2013-02-09 19:22:00,61.7,56.5,30.02,NE,51,2.0,9.0,83,0.00,,,0.00,0.0,meteohub,2013-02-10 01:22:00,
2013-02-09 19:27:00,61.7,56.5,30.02,NNE,16,4.0,7.0,83,0.00,,,0.00,0.0,meteohub,2013-02-10 01:27:00,
2013-02-09 19:32:00,61.5,56.3,30.01,NNE,18,4.0,7.0,83,0.00,,,0.00,0.0,meteohub,2013-02-10 01:32:00,
2013-02-09 19:37:00,61.5,56.7,30.01,NE,44,1.0,11.0,84,0.00,,,0.00,0.0,meteohub,2013-02-10 01:37:00,
2013-02-09 19:42:00,61.3,56.5,30.01,NE,40,2.0,11.0,84,0.00,,,0.00,0.0,meteohub,2013-02-10 01:42:00,
2013-02-09 19:47:00,61.3,56.5,30.00,North,354,4.0,11.0,84,0.00,,,0.00,0.0,meteohub,2013-02-10 01:47:00,
2013-02-09 19:52:00,61.2,56.3,30.00,NE,38,3.0,13.0,84,0.00,,,0.00,0.0,meteohub,2013-02-10 01:52:00,
2013-02-09 19:57:00,61.2,56.3,30.00,NE,47,2.0,13.0,84,0.00,,,0.00,0.0,meteohub,2013-02-10 01:57:00,
2013-02-09 20:02:00,61.0,56.5,30.00,NE,49,6.0,14.0,85,0.00,,,0.00,0.0,meteohub,2013-02-10 02:02:00,
2013-02-09 20:07:00,60.8,56.3,30.01,NNE,21,5.0,14.0,85,0.00,,,0.00,0.0,meteohub,2013-02-10 02:07:00,
2013-02-09 20:12:00,60.6,56.1,30.01,NE,37,6.0,14.0,85,0.00,,,0.00,0.0,meteohub,2013-02-10 02:12:00,
2013-02-09 20:17:00,60.6,56.1,30.01,NE,51,2.0,13.0,85,0.00,,,0.00,0.0,meteohub,2013-02-10 02:17:00,
2013-02-09 20:22:00,60.4,55.9,30.01,NE,44,2.0,11.0,85,0.00,,,0.00,0.0,meteohub,2013-02-10 02:22:00,
2013-02-09 20:27:00,60.4,56.3,30.01,NNE,32,2.0,12.0,86,0.00,,,0.00,0.0,meteohub,2013-02-10 02:27:00,
2013-02-09 20:32:00,60.4,56.3,30.00,NNE,12,10.0,14.0,86,0.00,,,0.00,0.0,meteohub,2013-02-10 02:32:00,
2013-02-09 20:38:00,60.4,56.3,30.00,NE,34,4.0,14.0,86,0.00,,,0.00,0.0,meteohub,2013-02-10 02:38:00,
2013-02-09 20:43:00,60.3,56.1,29.99,NNE,28,9.0,12.0,86,0.00,,,0.00,0.0,meteohub,2013-02-10 02:43:00,
2013-02-09 20:48:00,60.3,56.1,29.99,NNE,26,7.0,13.0,86,0.00,,,0.00,0.0,meteohub,2013-02-10 02:48:00,
2013-02-09 20:53:00,60.3,56.1,29.99,NE,45,3.0,13.0,86,0.00,,,0.00,0.0,meteohub,2013-02-10 02:53:00,
2013-02-09 20:58:00,60.3,56.1,29.98,North,3,5.0,14.0,86,0.00,,,0.00,0.0,meteohub,2013-02-10 02:58:00,
2013-02-09 21:03:00,60.3,56.1,29.98,NE,37,8.0,14.0,86,0.00,,,0.00,0.0,meteohub,2013-02-10 03:03:00,
2013-02-09 21:08:00,60.3,56.1,29.98,NNE,27,10.0,15.0,86,0.00,,,0.00,0.0,meteohub,2013-02-10 03:08:00,
2013-02-09 21:13:00,60.3,56.3,29.99,NNE,32,3.0,15.0,87,0.00,,,0.00,0.0,meteohub,2013-02-10 03:13:00,
2013-02-09 21:18:00,60.3,56.3,29.99,NE,44,4.0,15.0,87,0.00,,,0.00,0.0,meteohub,2013-02-10 03:18:00,
2013-02-09 21:23:00,60.3,56.3,29.99,North,352,1.0,16.0,87,0.00,,,0.00,0.0,meteohub,2013-02-10 03:23:00,
2013-02-09 21:28:00,60.4,56.5,29.99,NNE,29,2.0,16.0,87,0.00,,,0.00,0.0,meteohub,2013-02-10 03:28:00,
2013-02-09 21:33:00,60.3,56.3,29.99,East,81,2.0,16.0,87,0.00,,,0.00,0.0,meteohub,2013-02-10 03:33:00,
2013-02-09 21:38:00,60.3,56.3,29.99,NE,38,4.0,11.0,87,0.00,,,0.00,0.0,meteohub,2013-02-10 03:38:00,
2013-02-09 21:43:00,60.3,56.3,29.99,NNE,33,4.0,11.0,87,0.00,,,0.00,0.0,meteohub,2013-02-10 03:43:00,
2013-02-09 21:48:00,60.4,56.8,29.99,NNE,33,3.0,11.0,88,0.00,,,0.00,0.0,meteohub,2013-02-10 03:48:00,
2013-02-09 21:53:00,60.4,56.8,29.99,East,94,0.0,11.0,88,0.00,,,0.00,0.0,meteohub,2013-02-10 03:53:00,
2013-02-09 21:58:00,60.4,56.8,29.99,NE,46,0.0,11.0,88,0.00,,,0.00,0.0,meteohub,2013-02-10 03:58:00,
2013-02-09 22:03:00,60.4,56.8,29.99,North,357,2.0,7.0,88,0.00,,,0.00,0.0,meteohub,2013-02-10 04:03:00,
2013-02-09 22:08:00,60.4,56.8,29.99,NE,36,0.0,10.0,88,0.00,,,0.00,0.0,meteohub,2013-02-10 04:08:00,
2013-02-09 22:13:00,60.6,57.0,29.99,East,84,5.0,10.0,88,0.00,,,0.00,0.0,meteohub,2013-02-10 04:13:00,
2013-02-09 22:18:00,60.6,57.0,29.99,North,9,3.0,10.0,88,0.00,,,0.00,0.0,meteohub,2013-02-10 04:18:00,
2013-02-09 22:23:00,60.6,57.0,29.99,NE,38,0.0,10.0,88,0.00,,,0.00,0.0,meteohub,2013-02-10 04:23:00,
2013-02-09 22:28:00,60.6,57.0,29.99,North,11,7.0,10.0,88,0.00,,,0.00,0.0,meteohub,2013-02-10 04:28:00,
2013-02-09 22:33:00,60.8,57.2,29.99,NE,40,0.0,10.0,88,0.00,,,0.00,0.0,meteohub,2013-02-10 04:33:00,
2013-02-09 22:38:00,61.0,57.4,29.99,ENE,63,0.0,7.0,88,0.00,,,0.00,0.0,meteohub,2013-02-10 04:38:00,
2013-02-09 22:43:00,61.0,57.7,29.99,ENE,73,0.0,9.0,89,0.00,,,0.00,0.0,meteohub,2013-02-10 04:43:00,
2013-02-09 22:48:00,61.0,57.7,29.99,NE,40,4.0,9.0,89,0.00,,,0.00,0.0,meteohub,2013-02-10 04:48:00,
2013-02-09 22:53:00,61.0,57.7,29.99,ENE,67,4.0,10.0,89,0.00,,,0.00,0.0,meteohub,2013-02-10 04:53:00,
2013-02-09 22:59:00,61.0,57.7,29.99,NNE,30,0.0,10.0,89,0.00,,,0.00,0.0,meteohub,2013-02-10 04:59:00,
2013-02-09 23:00:00,61.0,57.7,29.99,NNE,32,0.0,10.0,89,0.00,,,0.00,0.0,meteohub,2013-02-10 05:00:00,
2013-02-09 23:05:00,61.2,57.9,29.99,ENE,59,3.0,9.0,89,0.00,,,0.00,0.0,meteohub,2013-02-10 05:05:00,
2013-02-09 23:10:00,61.0,57.7,29.99,North,11,3.0,8.0,89,0.00,,,0.00,0.0,meteohub,2013-02-10 05:10:00,
2013-02-09 23:15:00,61.0,57.7,29.99,NNE,22,5.0,8.0,89,0.00,,,0.00,0.0,meteohub,2013-02-10 05:15:00,
2013-02-09 23:20:00,61.2,57.9,29.99,NNE,32,1.0,8.0,89,0.00,,,0.00,0.0,meteohub,2013-02-10 05:20:00,
2013-02-09 23:25:00,61.0,57.7,29.99,North,10,2.0,9.0,89,0.00,,,0.00,0.0,meteohub,2013-02-10 05:25:00,
2013-02-09 23:30:00,61.0,57.7,29.99,ENE,59,4.0,9.0,89,0.00,,,0.00,0.0,meteohub,2013-02-10 05:30:00,
2013-02-09 23:35:00,61.0,57.7,29.99,NE,34,6.0,10.0,89,0.00,,,0.00,0.0,meteohub,2013-02-10 05:35:00,
2013-02-09 23:41:00,61.2,58.3,29.99,NE,46,0.0,10.0,90,0.00,,,0.00,0.0,meteohub,2013-02-10 05:41:00,
2013-02-09 23:46:00,61.2,57.9,29.99,NNE,25,4.0,10.0,89,0.00,,,0.00,0.0,meteohub,2013-02-10 05:46:00,
2013-02-09 23:51:00,61.2,58.3,29.99,NNE,27,5.0,10.0,90,0.00,,,0.00,0.0,meteohub,2013-02-10 05:51:00,
2013-02-09 23:56:00,61.2,58.3,29.99,North,10,6.0,9.0,90,0.00,,,0.00,0.0,meteohub,2013-02-10 05:56:00,